Time,TemperatureF,DewpointF,PressureIn,WindDirection,WindDirectionDegrees,WindSpeedMPH,WindSpeedGustMPH,Humidity,HourlyPrecipIn,Conditions,Clouds,dailyrainin,SoftwareType,DateUTC
2013-03-01 00:02:00,34.0,34.0,29.66,ENE,70,3.0,-999.0,100,-99.99,,,-99.99,,2013-03-01 05:02:00,
2013-03-01 00:11:00,34.0,34.0,29.66,ENE,70,5.0,-999.0,100,-99.99,,,-99.99,,2013-03-01 05:11:00,
2013-03-01 00:22:00,34.0,34.0,29.66,NE,50,3.0,-999.0,100,-99.99,,,-99.99,,2013-03-01 05:22:00,
2013-03-01 00:32:00,32.0,32.0,29.66,ENE,60,3.0,-999.0,100,-99.99,,,-99.99,,2013-03-01 05:32:00,
2013-03-01 00:42:00,32.0,32.0,29.66,ENE,60,5.0,-999.0,100,-99.99,,,-99.99,,2013-03-01 05:42:00,
2013-03-01 00:52:00,32.0,32.0,29.66,ENE,60,5.0,-999.0,100,-99.99,,,-99.99,,2013-03-01 05:52:00,
2013-03-01 01:02:00,32.0,32.0,29.66,ENE,60,5.0,-999.0,100,-99.99,,,-99.99,,2013-03-01 06:02:00,
2013-03-01 01:11:00,32.0,32.0,29.66,ENE,60,5.0,-999.0,100,-99.99,,,-99.99,,2013-03-01 06:11:00,
2013-03-01 01:22:00,32.0,32.0,29.66,NE,50,6.0,-999.0,100,-99.99,,,-99.99,,2013-03-01 06:22:00,
2013-03-01 01:32:00,32.0,32.0,29.66,NE,40,6.0,-999.0,100,-99.99,,,-99.99,,2013-03-01 06:32:00,
2013-03-01 01:42:00,32.0,32.0,29.66,NE,40,6.0,-999.0,100,-99.99,,,-99.99,,2013-03-01 06:42:00,
2013-03-01 01:52:00,32.0,32.0,29.66,NE,50,6.0,-999.0,100,-99.99,,,-99.99,,2013-03-01 06:52:00,
2013-03-01 02:02:00,32.0,32.0,29.66,NE,50,6.0,-999.0,100,-99.99,,,-99.99,,2013-03-01 07:02:00,
2013-03-01 02:11:00,32.0,32.0,29.66,NNE,30,6.0,-999.0,100,-99.99,,,-99.99,,2013-03-01 07:11:00,
2013-03-01 02:22:00,32.0,32.0,29.66,NNE,30,6.0,-999.0,100,-99.99,,,-99.99,,2013-03-01 07:22:00,
2013-03-01 02:32:00,32.0,32.0,29.66,NNE,30,6.0,-999.0,100,-99.99,,,-99.99,,2013-03-01 07:32:00,
2013-03-01 02:42:00,32.0,32.0,29.66,NE,40,5.0,-999.0,100,-99.99,,,-99.99,,2013-03-01 07:42:00,
2013-03-01 02:52:00,32.0,32.0,29.67,NE,40,6.0,-999.0,100,-99.99,,,-99.99,,2013-03-01 07:52:00,
2013-03-01 03:02:00,32.0,32.0,29.67,NE,40,6.0,-999.0,100,-99.99,,,-99.99,,2013-03-01 08:02:00,
2013-03-01 03:12:00,32.0,32.0,29.67,NNE,20,6.0,-999.0,100,-99.99,,,-99.99,,2013-03-01 08:12:00,
2013-03-01 03:22:00,32.0,32.0,29.67,NE,40,6.0,-999.0,100,-99.99,,,-99.99,,2013-03-01 08:22:00,
2013-03-01 03:32:00,32.0,32.0,29.67,NNE,30,8.0,-999.0,100,-99.99,,,-99.99,,2013-03-01 08:32:00,
2013-03-01 03:42:00,32.0,32.0,29.68,NE,40,7.0,-999.0,100,-99.99,,,-99.99,,2013-03-01 08:42:00,
2013-03-01 03:52:00,32.0,32.0,29.68,NNE,30,6.0,-999.0,100,-99.99,,,-99.99,,2013-03-01 08:52:00,
2013-03-01 04:02:00,32.0,32.0,29.68,NNE,30,6.0,-999.0,100,-99.99,,,-99.99,,2013-03-01 09:02:00,
2013-03-01 04:12:00,32.0,32.0,29.68,NE,40,6.0,-999.0,100,-99.99,,,-99.99,,2013-03-01 09:12:00,
2013-03-01 04:22:00,32.0,32.0,29.69,NE,40,6.0,-999.0,100,-99.99,,,-99.99,,2013-03-01 09:22:00,
2013-03-01 04:32:00,32.0,32.0,29.69,NNE,30,5.0,-999.0,100,-99.99,,,-99.99,,2013-03-01 09:32:00,
2013-03-01 04:42:00,32.0,32.0,29.69,NE,40,5.0,-999.0,100,-99.99,,,-99.99,,2013-03-01 09:42:00,
2013-03-01 04:52:00,32.0,32.0,29.70,NNE,30,5.0,-999.0,100,-99.99,,,-99.99,,2013-03-01 09:52:00,
2013-03-01 05:02:00,32.0,32.0,29.70,NNE,30,5.0,-999.0,100,-99.99,,,-99.99,,2013-03-01 10:02:00,
2013-03-01 05:11:00,32.0,32.0,29.70,North,0,0.0,-999.0,100,-99.99,,,-99.99,,2013-03-01 10:11:00,
2013-03-01 05:22:00,32.0,32.0,29.70,North,0,0.0,-999.0,100,-99.99,,,-99.99,,2013-03-01 10:22:00,
2013-03-01 05:32:00,32.0,32.0,29.70,North,0,0.0,-999.0,100,-99.99,,,-99.99,,2013-03-01 10:32:00,
2013-03-01 05:42:00,32.0,32.0,29.70,North,0,0.0,-999.0,100,-99.99,,,-99.99,,2013-03-01 10:42:00,
2013-03-01 05:52:00,32.0,32.0,29.71,North,10,3.0,-999.0,100,-99.99,,,-99.99,,2013-03-01 10:52:00,
2013-03-01 06:02:00,32.0,32.0,29.71,North,10,3.0,-999.0,100,-99.99,,,-99.99,,2013-03-01 11:02:00,
2013-03-01 06:11:00,32.0,32.0,29.71,North,360,3.0,-999.0,100,-99.99,,,-99.99,,2013-03-01 11:11:00,
2013-03-01 06:22:00,32.0,32.0,29.71,North,0,0.0,-999.0,100,-99.99,,,-99.99,,2013-03-01 11:22:00,
2013-03-01 06:32:00,32.0,32.0,29.71,North,0,0.0,-999.0,100,-99.99,,,-99.99,,2013-03-01 11:32:00,
2013-03-01 06:42:00,32.0,32.0,29.71,North,0,0.0,-999.0,100,-99.99,,,-99.99,,2013-03-01 11:42:00,
2013-03-01 06:52:00,32.0,32.0,29.71,North,0,0.0,-999.0,100,-99.99,,,-99.99,,2013-03-01 11:52:00,
2013-03-01 07:02:00,32.0,32.0,29.71,North,0,0.0,-999.0,100,-99.99,,,-99.99,,2013-03-01 12:02:00,
2013-03-01 07:11:00,32.0,32.0,29.72,North,0,0.0,-999.0,100,-99.99,,,-99.99,,2013-03-01 12:11:00,
2013-03-01 07:21:00,32.0,32.0,29.72,North,0,0.0,-999.0,100,-99.99,,,-99.99,,2013-03-01 12:21:00,
2013-03-01 07:32:00,32.0,32.0,29.72,NW,310,3.0,-999.0,100,-99.99,,,-99.99,,2013-03-01 12:32:00,
2013-03-01 07:42:00,32.0,32.0,29.73,North,0,0.0,-999.0,100,-99.99,,,-99.99,,2013-03-01 12:42:00,
2013-03-01 07:52:00,32.0,32.0,29.73,NNW,330,3.0,-999.0,100,-99.99,,,-99.99,,2013-03-01 12:52:00,
2013-03-01 08:01:00,32.0,32.0,29.73,NNW,330,3.0,-999.0,100,-99.99,,,-99.99,,2013-03-01 13:01:00,
2013-03-01 08:11:00,32.0,32.0,29.73,NNW,340,5.0,-999.0,100,-99.99,,,-99.99,,2013-03-01 13:11:00,
2013-03-01 08:22:00,32.0,32.0,29.73,NNW,340,5.0,-999.0,100,-99.99,,,-99.99,,2013-03-01 13:22:00,
2013-03-01 08:32:00,32.0,32.0,29.73,NNW,340,5.0,-999.0,100,-99.99,,,-99.99,,2013-03-01 13:32:00,
2013-03-01 08:42:00,32.0,32.0,29.74,North,350,8.0,-999.0,100,-99.99,,,-99.99,,2013-03-01 13:42:00,
2013-03-01 08:52:00,32.0,32.0,29.74,North,350,9.0,-999.0,100,-99.99,,,-99.99,,2013-03-01 13:52:00,
2013-03-01 09:02:00,32.0,32.0,29.74,North,350,9.0,-999.0,100,-99.99,,,-99.99,,2013-03-01 14:02:00,
2013-03-01 09:11:00,32.0,32.0,29.74,North,360,8.0,-999.0,100,-99.99,,,-99.99,,2013-03-01 14:11:00,
2013-03-01 09:21:00,32.0,32.0,29.74,North,350,9.0,-999.0,100,-99.99,,,-99.99,,2013-03-01 14:21:00,
2013-03-01 09:32:00,32.0,32.0,29.74,NNW,330,9.0,-999.0,100,-99.99,,,-99.99,,2013-03-01 14:32:00,
2013-03-01 09:42:00,32.0,32.0,29.74,NNW,340,8.0,-999.0,100,-99.99,,,-99.99,,2013-03-01 14:42:00,
2013-03-01 09:52:00,32.0,32.0,29.74,North,350,8.0,-999.0,100,-99.99,,,-99.99,,2013-03-01 14:52:00,
2013-03-01 10:02:00,32.0,32.0,29.74,North,350,8.0,-999.0,100,-99.99,,,-99.99,,2013-03-01 15:02:00,
2013-03-01 10:11:00,32.0,32.0,29.75,NNW,340,8.0,-999.0,100,-99.99,,,-99.99,,2013-03-01 15:11:00,
2013-03-01 10:21:00,32.0,32.0,29.75,North,350,9.0,-999.0,100,-99.99,,,-99.99,,2013-03-01 15:21:00,
2013-03-01 10:32:00,32.0,32.0,29.75,North,350,7.0,-999.0,100,-99.99,,,-99.99,,2013-03-01 15:32:00,
2013-03-01 10:42:00,32.0,32.0,29.75,NNW,340,7.0,-999.0,100,-99.99,,,-99.99,,2013-03-01 15:42:00,
2013-03-01 10:52:00,32.0,30.0,29.75,North,350,8.0,-999.0,92,-99.99,,,-99.99,,2013-03-01 15:52:00,
2013-03-01 11:01:00,32.0,30.0,29.75,North,350,8.0,-999.0,92,-99.99,,,-99.99,,2013-03-01 16:01:00,
2013-03-01 11:11:00,34.0,30.0,29.75,North,350,9.0,-999.0,86,-99.99,,,-99.99,,2013-03-01 16:11:00,
2013-03-01 11:21:00,34.0,30.0,29.75,North,350,13.0,-999.0,86,-99.99,,,-99.99,,2013-03-01 16:21:00,
2013-03-01 11:32:00,34.0,30.0,29.75,NNW,340,8.0,-999.0,86,-99.99,,,-99.99,,2013-03-01 16:32:00,
2013-03-01 11:42:00,34.0,30.0,29.75,North,350,8.0,-999.0,86,-99.99,,,-99.99,,2013-03-01 16:42:00,
2013-03-01 11:51:00,34.0,28.0,29.76,North,360,6.0,-999.0,80,-99.99,,,-99.99,,2013-03-01 16:51:00,
2013-03-01 12:01:00,34.0,28.0,29.76,North,360,6.0,-999.0,80,-99.99,,,-99.99,,2013-03-01 17:01:00,
2013-03-01 12:11:00,34.0,30.0,29.76,NNW,340,10.0,-999.0,86,-99.99,,,-99.99,,2013-03-01 17:11:00,
2013-03-01 12:21:00,34.0,28.0,29.76,NNW,330,9.0,-999.0,80,-99.99,,,-99.99,,2013-03-01 17:21:00,
2013-03-01 12:32:00,32.0,30.0,29.76,NNW,330,10.0,-999.0,92,-99.99,,,-99.99,,2013-03-01 17:32:00,
2013-03-01 12:41:00,32.0,30.0,29.76,NW,320,9.0,-999.0,92,-99.99,,,-99.99,,2013-03-01 17:41:00,
2013-03-01 12:52:00,32.0,30.0,29.77,NW,320,10.0,-999.0,92,-99.99,,,-99.99,,2013-03-01 17:52:00,
2013-03-01 13:01:00,32.0,30.0,29.77,NW,320,10.0,-999.0,92,-99.99,,,-99.99,,2013-03-01 18:01:00,
2013-03-01 13:12:00,32.0,30.0,29.77,NNW,330,7.0,-999.0,92,-99.99,,,-99.99,,2013-03-01 18:12:00,
2013-03-01 13:22:00,32.0,30.0,29.77,NNW,330,9.0,-999.0,92,-99.99,,,-99.99,,2013-03-01 18:22:00,
2013-03-01 13:32:00,32.0,28.0,29.77,NNW,330,8.0,-999.0,86,-99.99,,,-99.99,,2013-03-01 18:32:00,
2013-03-01 13:42:00,32.0,28.0,29.77,NW,320,8.0,-999.0,86,-99.99,,,-99.99,,2013-03-01 18:42:00,
2013-03-01 13:52:00,32.0,28.0,29.77,NNW,330,12.0,-999.0,86,-99.99,,,-99.99,,2013-03-01 18:52:00,
2013-03-01 14:01:00,32.0,28.0,29.77,NNW,330,12.0,-999.0,86,-99.99,,,-99.99,,2013-03-01 19:01:00,
2013-03-01 14:11:00,30.0,28.0,29.77,NNW,330,9.0,-999.0,92,-99.99,,,-99.99,,2013-03-01 19:11:00,
2013-03-01 14:21:00,32.0,28.0,29.77,NNW,340,10.0,-999.0,86,-99.99,,,-99.99,,2013-03-01 19:21:00,
2013-03-01 14:32:00,32.0,28.0,29.77,NNW,330,9.0,-999.0,86,-99.99,,,-99.99,,2013-03-01 19:32:00,
2013-03-01 14:42:00,30.0,28.0,29.78,NNW,330,10.0,-999.0,92,-99.99,,,-99.99,,2013-03-01 19:42:00,
2013-03-01 14:51:00,30.0,27.0,29.78,NNW,330,9.0,-999.0,86,-99.99,,,-99.99,,2013-03-01 19:51:00,
2013-03-01 15:01:00,30.0,27.0,29.78,NNW,330,9.0,-999.0,86,-99.99,,,-99.99,,2013-03-01 20:01:00,
2013-03-01 15:11:00,30.0,27.0,29.79,North,350,8.0,-999.0,86,-99.99,,,-99.99,,2013-03-01 20:11:00,
2013-03-01 15:21:00,30.0,28.0,29.79,NW,320,9.0,-999.0,92,-99.99,,,-99.99,,2013-03-01 20:21:00,
2013-03-01 15:32:00,30.0,27.0,29.79,NW,320,8.0,-999.0,86,-99.99,,,-99.99,,2013-03-01 20:32:00,
2013-03-01 15:42:00,30.0,27.0,29.79,NNW,330,7.0,-999.0,86,-99.99,,,-99.99,,2013-03-01 20:42:00,
2013-03-01 15:52:00,30.0,27.0,29.79,NNW,330,12.0,-999.0,86,-99.99,,,-99.99,,2013-03-01 20:52:00,
2013-03-01 16:02:00,30.0,27.0,29.79,NNW,330,12.0,-999.0,86,-99.99,,,-99.99,,2013-03-01 21:02:00,
2013-03-01 16:11:00,30.0,27.0,29.80,NNW,330,12.0,16.0,86,-99.99,,,-99.99,,2013-03-01 21:11:00,
2013-03-01 16:21:00,30.0,27.0,29.80,NNW,340,7.0,-999.0,86,-99.99,,,-99.99,,2013-03-01 21:21:00,
2013-03-01 16:32:00,30.0,27.0,29.80,NW,320,9.0,-999.0,86,-99.99,,,-99.99,,2013-03-01 21:32:00,
2013-03-01 16:42:00,30.0,27.0,29.80,NW,320,7.0,-999.0,86,-99.99,,,-99.99,,2013-03-01 21:42:00,
2013-03-01 16:52:00,30.0,27.0,29.81,NW,320,8.0,-999.0,86,-99.99,,,-99.99,,2013-03-01 21:52:00,
2013-03-01 17:01:00,30.0,27.0,29.81,NW,320,8.0,-999.0,86,-99.99,,,-99.99,,2013-03-01 22:01:00,
2013-03-01 17:11:00,30.0,27.0,29.81,NNW,330,7.0,-999.0,86,-99.99,,,-99.99,,2013-03-01 22:11:00,
2013-03-01 17:21:00,30.0,28.0,29.81,NW,320,7.0,-999.0,92,-99.99,,,-99.99,,2013-03-01 22:21:00,
2013-03-01 17:32:00,30.0,28.0,29.82,NW,320,7.0,-999.0,92,-99.99,,,-99.99,,2013-03-01 22:32:00,
2013-03-01 17:42:00,30.0,28.0,29.82,NW,310,5.0,-999.0,92,-99.99,,,-99.99,,2013-03-01 22:42:00,
2013-03-01 17:51:00,30.0,28.0,29.83,NW,310,7.0,-999.0,92,-99.99,,,-99.99,,2013-03-01 22:51:00,
2013-03-01 18:01:00,30.0,28.0,29.83,NW,310,7.0,-999.0,92,-99.99,,,-99.99,,2013-03-01 23:01:00,
2013-03-01 18:11:00,28.0,28.0,29.83,NW,310,3.0,-999.0,100,-99.99,,,-99.99,,2013-03-01 23:11:00,
2013-03-01 18:21:00,28.0,28.0,29.83,WNW,290,5.0,-999.0,100,-99.99,,,-99.99,,2013-03-01 23:21:00,
2013-03-01 18:32:00,28.0,28.0,29.83,West,280,6.0,-999.0,100,-99.99,,,-99.99,,2013-03-01 23:32:00,
2013-03-01 18:41:00,28.0,28.0,29.83,West,280,6.0,-999.0,100,-99.99,,,-99.99,,2013-03-01 23:41:00,
2013-03-01 18:52:00,28.0,28.0,29.83,West,270,7.0,-999.0,100,-99.99,,,-99.99,,2013-03-01 23:52:00,
2013-03-01 19:02:00,28.0,28.0,29.83,West,270,7.0,-999.0,100,-99.99,,,-99.99,,2013-03-02 00:02:00,
2013-03-01 19:12:00,28.0,28.0,29.83,West,280,6.0,-999.0,100,-99.99,,,-99.99,,2013-03-02 00:12:00,
2013-03-01 19:22:00,28.0,28.0,29.83,WNW,290,5.0,-999.0,100,-99.99,,,-99.99,,2013-03-02 00:22:00,
2013-03-01 19:32:00,28.0,28.0,29.84,West,280,5.0,-999.0,100,-99.99,,,-99.99,,2013-03-02 00:32:00,
2013-03-01 19:42:00,28.0,28.0,29.83,West,280,7.0,-999.0,100,-99.99,,,-99.99,,2013-03-02 00:42:00,
2013-03-01 19:52:00,28.0,28.0,29.84,WNW,290,5.0,-999.0,100,-99.99,,,-99.99,,2013-03-02 00:52:00,
2013-03-01 20:01:00,28.0,28.0,29.84,WNW,290,5.0,-999.0,100,-99.99,,,-99.99,,2013-03-02 01:01:00,
2013-03-01 20:11:00,28.0,28.0,29.84,WNW,290,6.0,-999.0,100,-99.99,,,-99.99,,2013-03-02 01:11:00,
2013-03-01 20:21:00,28.0,28.0,29.84,WNW,300,5.0,-999.0,100,-99.99,,,-99.99,,2013-03-02 01:21:00,
2013-03-01 20:32:00,28.0,28.0,29.84,WNW,290,6.0,-999.0,100,-99.99,,,-99.99,,2013-03-02 01:32:00,
2013-03-01 20:41:00,28.0,28.0,29.84,WNW,290,7.0,-999.0,100,-99.99,,,-99.99,,2013-03-02 01:41:00,
2013-03-01 20:51:00,28.0,28.0,29.84,WNW,300,7.0,-999.0,100,-99.99,,,-99.99,,2013-03-02 01:51:00,
2013-03-01 21:01:00,28.0,28.0,29.84,WNW,300,7.0,-999.0,100,-99.99,,,-99.99,,2013-03-02 02:01:00,
2013-03-01 21:11:00,28.0,28.0,29.84,WNW,290,6.0,-999.0,100,-99.99,,,-99.99,,2013-03-02 02:11:00,
2013-03-01 21:22:00,28.0,28.0,29.84,West,280,6.0,-999.0,100,-99.99,,,-99.99,,2013-03-02 02:22:00,
2013-03-01 21:32:00,28.0,28.0,29.84,West,280,6.0,-999.0,100,-99.99,,,-99.99,,2013-03-02 02:32:00,
2013-03-01 21:42:00,28.0,28.0,29.84,West,280,6.0,-999.0,100,-99.99,,,-99.99,,2013-03-02 02:42:00,
2013-03-01 21:52:00,28.0,28.0,29.84,West,280,6.0,-999.0,100,-99.99,,,-99.99,,2013-03-02 02:52:00,
2013-03-01 22:02:00,28.0,28.0,29.84,West,280,6.0,-999.0,100,-99.99,,,-99.99,,2013-03-02 03:02:00,
2013-03-01 22:11:00,27.0,27.0,29.84,West,270,6.0,-999.0,100,-99.99,,,-99.99,,2013-03-02 03:11:00,
2013-03-01 22:21:00,27.0,27.0,29.84,West,280,6.0,-999.0,100,-99.99,,,-99.99,,2013-03-02 03:21:00,
2013-03-01 22:32:00,27.0,27.0,29.84,WNW,290,7.0,-999.0,100,-99.99,,,-99.99,,2013-03-02 03:32:00,
2013-03-01 22:42:00,27.0,27.0,29.84,WNW,290,6.0,-999.0,100,-99.99,,,-99.99,,2013-03-02 03:42:00,
2013-03-01 22:52:00,27.0,27.0,29.84,WNW,290,5.0,-999.0,100,-99.99,,,-99.99,,2013-03-02 03:52:00,
2013-03-01 23:02:00,27.0,27.0,29.84,WNW,290,5.0,-999.0,100,-99.99,,,-99.99,,2013-03-02 04:02:00,
2013-03-01 23:11:00,27.0,27.0,29.84,WNW,290,6.0,-999.0,100,-99.99,,,-99.99,,2013-03-02 04:11:00,
2013-03-01 23:21:00,27.0,27.0,29.84,WNW,300,6.0,-999.0,100,-99.99,,,-99.99,,2013-03-02 04:21:00,
2013-03-01 23:32:00,27.0,27.0,29.84,NW,310,3.0,-999.0,100,-99.99,,,-99.99,,2013-03-02 04:32:00,
2013-03-01 23:42:00,27.0,27.0,29.84,WNW,300,8.0,-999.0,100,-99.99,,,-99.99,,2013-03-02 04:42:00,
2013-03-01 23:52:00,27.0,27.0,29.84,WNW,300,8.0,-999.0,100,-99.99,,,-99.99,,2013-03-02 04:52:00,